TimeCAT,TemperatureF,Dew PointF,Humidity,Sea Level PressureIn,VisibilityMPH,Wind Direction,Wind SpeedMPH,Gust SpeedMPH,PrecipitationIn,Events,Conditions,WindDirDegrees,DateUTC
12:00 AM,68.0,44.6,43,30.15,-9999.0,East,9.2,-,N/A,,Clear,90,2012-10-05 22:00:00
2:00 AM,64,47,44,,12,East,9.2,,,,Haze,90,2012-10-06 00:00:00
2:00 AM,64.4,42.8,45,30.12,-9999.0,East,5.8,-,N/A,,Clear,90,2012-10-06 00:00:00
3:00 AM,64.4,50.0,59,30.12,-9999.0,East,10.4,-,N/A,,Clear,80,2012-10-06 01:00:00
5:00 AM,60.8,50.0,68,30.15,-9999.0,East,9.2,-,N/A,,Clear,80,2012-10-06 03:00:00
6:00 AM,59.0,50.0,72,30.18,2.5,East,10.4,-,N/A,,Haze,80,2012-10-06 04:00:00
8:00 AM,72,47,29,,2,East,12.7,,,,Haze,90,2012-10-06 06:00:00
9:00 AM,77.0,44.6,32,30.24,3.1,ENE,13.8,-,N/A,,Haze,70,2012-10-06 07:00:00
1:00 PM,86.0,41.0,20,30.15,5.0,East,10.4,-,N/A,,Clear,80,2012-10-06 11:00:00
2:00 PM,86,40,11,,5,NE,9.2,,,,Haze,50,2012-10-06 12:00:00
2:00 PM,86.0,39.2,19,30.12,5.0,NE,9.2,-,N/A,,Clear,50,2012-10-06 12:00:00
3:00 PM,86.0,37.4,18,30.09,5.0,ENE,10.4,-,N/A,,Clear,70,2012-10-06 13:00:00
4:00 PM,86.0,39.2,19,30.09,5.0,ENE,8.1,-,N/A,,Clear,70,2012-10-06 14:00:00
5:00 PM,84.2,46.4,27,30.09,5.0,ENE,12.7,-,N/A,,Clear,70,2012-10-06 15:00:00
6:00 PM,80.6,41.0,24,30.12,5.0,NE,11.5,-,N/A,,Clear,50,2012-10-06 16:00:00
7:00 PM,75.2,41.0,29,30.12,5.0,ENE,11.5,-,N/A,,Clear,70,2012-10-06 17:00:00
8:00 PM,72,42,23,,5,ENE,9.2,,,,Haze,70,2012-10-06 18:00:00
8:00 PM,71.6,42.8,35,30.15,5.0,ENE,9.2,-,N/A,,Clear,70,2012-10-06 18:00:00
9:00 PM,69.8,44.6,40,30.18,5.0,East,10.4,-,N/A,,Clear,80,2012-10-06 19:00:00
10:00 PM,68.0,39.2,35,30.18,5.0,North,8.1,-,N/A,,Clear,8,2012-10-06 20:00:00